Starlink 31550

operational
NORAD ID: 59338 Int'l Des: 2024-057 Owner: SPXS Country: US Constellation: starlink
LEOCIRCULAR

Starlink 31550について

説明を読み込み中...

リアルタイム位置

3D地球を読み込み中...

次回通過

高度履歴

Altitude vs Time

uPlot chart will show altitude changes over time

軌道要素

1 59338U 24057U 25306.37380292 .00003153 00000-0 12408-3 0 9996
2 59338 43.0032 186.4399 0001061 278.4884 81.5848 15.27571211 90365
Epoch: Nov 2, 2025 • Age: 25 hours

現在のステータス

高度 490.5 km
速度 7.62 km/s
衛星直下点 -30.28°S, 48.94°W
打ち上げ日 Mar 25, 2024
運用期間 1.6 years
タイプ internet

技術仕様

分類 Payload
質量 730.00 kg
乾燥質量 700.00 kg
総質量 730.00 kg
長さ 0.30 m
直径 4.10 m
スパン 29.00 m
形状 Box + pan
製造者 SPXS
バスタイプ Starlink V2M
フェーズステータス In Orbit
所有者/国 SPXS/US

大規模コンステレーション

Loading constellations...